Regional Weather Roundup
Issued by NWS

Home | Current Version | Previous Version | Graphics & Text | Print | Product List | Glossary Off
Versions: 1 2 3 4 5 6 7 8 9 10 11 12 13 14 15 16 17 18 19 20 21 22 23 24 25 26 27 28 29 30 31 32 33 34 35 36 37 38 39 40 41 42 43 44 45 46 47 48 49 50

370
ASUS43 KTOP 230508
RWRKS

WEATHER ROUNDUP FOR KANSAS
NATIONAL WEATHER SERVICE GOODLAND KS
1100 PM CST WED FEB 22 2017

NOTE:  "FAIR" INDICATES FEW OR NO CLOUDS BELOW 12,000 FEET WITH NO
SIGNIFICANT WEATHER AND/OR OBSTRUCTIONS TO VISIBILITY.

KSZ001>006-013>018-027>032-041>047-230600-
NORTHWEST KANSAS

CITY           SKY/WX    TMP DP  RH WIND       PRES   REMARKS
GOODLAND       CLOUDY    38  22  52 E10       29.68F WCI  31
HAYS             N/A     49  28  44 NE14      29.67F
HILL CITY      CLEAR     41  25  53 NE8       29.71S
RUSSELL        CLOUDY    49  30  48 NE12      29.67F
$$

KSZ061>065-074>080-084>089-230600-
SOUTHWEST KANSAS

CITY           SKY/WX    TMP DP  RH WIND       PRES   REMARKS
DODGE CITY     PTCLDY    50  32  50 SE8       29.66S
ELKHART          N/A     60  25  26 W10         N/A
GARDEN CITY    CLOUDY    50  26  39 E10       29.66S
GREAT BEND     CLOUDY    52  33  48 E7        29.66F
LIBERAL        CLOUDY    57  19  23 W8        29.65F
PRATT          MOCLDY    52  30  42 E6        29.66F
$$

KSZ066>073-081>083-090>101-230600-
SOUTHEAST KANSAS

CITY           SKY/WX    TMP DP  RH WIND       PRES   REMARKS
CHANUTE        PTCLDY    48  40  73 E3        29.69F
COFFEYVILLE    PTCLDY    58  47  66 S6        29.68S
HUTCHINSON     CLOUDY    60  33  36 E9        29.66F
MEDICINE LODGE   N/A     46  36  68 NE3       29.64F
NEWTON         PTCLDY    58  46  64 SW3       29.70S
PARSONS        CLOUDY    49  41  74 CALM      29.69F
WICHITA INTL   PTCLDY    55  46  71 E5        29.67F
WICHITA JABRA  CLOUDY    54  46  74 NE5       29.67F
WICHITA MCCONL PTCLDY    58  44  60 E7        29.67F
WINFIELD       CLEAR     50  43  77 CALM      29.68F
$$

KSZ007>012-019>026-033>040-048>060-102>105-230600-
NORTHEAST KANSAS

CITY           SKY/WX    TMP DP  RH WIND       PRES   REMARKS
CONCORDIA      PTCLDY    52  33  48 E8        29.73R
EMPORIA        PTCLDY    50  41  71 S3        29.68S
LAWRENCE       CLEAR     40  34  79 W3        29.71R
MANHATTAN      CLOUDY    55  38  52 NE12      29.72R
MARYSVILLE     CLEAR     50  34  53 NE12      29.74F
OLATHE IND     CLEAR     49  36  61 CALM      29.72R
OLATHE EXE     CLEAR     56  36  47 N3        29.71R
SALINA         CLOUDY    58  33  39 NE8       29.69S
TOPEKA BILLARD CLEAR     53  39  59 NE6       29.71R
TOPEKA FORBES  CLEAR     55  39  54 N10       29.70R
$$




USA.gov is the U.S. government's official web portal to all federal, state and local government web resources and services.